Location: Santa Fe
(35.6870°N, 105.9370°W)
Time: 04:25:06
(UTC-06:00)

Amateur Radio Satellites - All Passes

Search period start: 27 September 2016 03:55
Search period end: 28 September 2016 03:55
Location: Santa Fe, 35.6870°N, 105.9370°W

Satellite Date Start Highest point End Downlink Frequencies (MHz)
Time Altitude Azimuth
MOZHAYETS 4 27 Sep 03:58:04 04:02:36 72° 75° (ENE) 04:07:10
BEESAT 27 Sep 04:02:24 04:05:22 16° 267° (W) 04:08:20 436.000
AIST 2 27 Sep 04:02:40 04:06:42 65° 117° (ESE) 04:10:48 435.215
YUBILEINY 27 Sep 04:07:12 04:15:55 65° 279° (W) 04:24:38 435.215
PCSat 27 Sep 04:12:13 04:17:01 33° 109° (ESE) 04:21:51 145.827
ITAMSAT 1 27 Sep 04:17:35 04:22:50 79° 285° (WNW) 04:28:02 435.822/435.867
Gurwin Techsat 1B 27 Sep 04:17:37 04:21:37 22° 294° (WNW) 04:25:38 435.225
ISS 27 Sep 04:26:53 04:30:06 53° 225° (SW) 04:33:19 145.825
KKS-1 27 Sep 04:30:30 04:34:57 75° 258° (WSW) 04:39:25 437.445
AIST 1 27 Sep 04:44:45 04:47:17 15° 86° (E) 04:49:48
AO-7 27 Sep 05:00:03 05:08:23 88° 107° (ESE) 05:16:41 29.400- 29.500
STARS 27 Sep 05:06:53 05:11:13 61° 259° (WSW) 05:15:33 437.465
CUBESAT XI-V 27 Sep 05:15:08 05:19:44 60° 75° (ENE) 05:24:23 437.345
BRITE-PL 27 Sep 05:30:12 05:32:24 13° 90° (E) 05:34:32 437.365/2234.400
Cosmos 2504 27 Sep 05:36:47 05:43:38 38° 283° (WNW) 05:50:17 435.465 / 435.565
CUSAT 1 27 Sep 05:39:21 05:45:34 26° 68° (ENE) 05:51:00 437.405
AIST 2 27 Sep 05:44:00 05:45:36 12° 314° (NW) 05:47:13 435.215
HORYU 2 27 Sep 05:44:52 05:48:59 36° 99° (E) 05:53:05 437.375
PCSat 27 Sep 05:55:40 06:00:22 30° 305° (NW) 06:05:07 145.827
RS-15 27 Sep 05:57:43 06:10:11 87° 61° (ENE) 06:22:15 29.354- 29.394
NOAA 15 27 Sep 05:59:13 06:01:43 13° 92° (E) 06:04:11 137.62
Cubesat XI-IV 27 Sep 06:11:45 06:14:39 15° 92° (E) 06:17:32 437.490
CUTE-I 27 Sep 06:12:06 06:15:07 15° 93° (E) 06:18:05 437.470
AIST 1 27 Sep 06:20:27 06:24:30 36° 281° (W) 06:28:35
AO-85 27 Sep 06:27:24 06:31:19 41° 56° (NE) 06:35:01 145.980
O/OREOS (USA 219) 27 Sep 06:32:28 06:34:29 13° 98° (E) 06:36:32 437.305
NOAA 18 27 Sep 06:44:38 06:49:05 25° 96° (E) 06:53:32 137.9125
AO-7 27 Sep 06:54:47 07:00:04 19° 305° (NW) 07:05:21 29.400- 29.500
CUBESAT XI-V 27 Sep 06:56:00 06:57:27 11° 269° (W) 06:58:55 437.345
DANDE 27 Sep 06:59:38 07:07:47 51° 76° (ENE) 07:15:17 436.750
GOMX 1 27 Sep 07:00:16 07:04:34 54° 99° (E) 07:08:39 467.674
LilacSat-2 27 Sep 07:02:01 07:05:47 51° 100° (E) 07:09:32 437.200
BRITE-PL 27 Sep 07:06:40 07:11:16 48° 287° (WNW) 07:15:32 437.365/2234.400
CUSAT 1 27 Sep 07:20:39 07:28:03 54° 269° (W) 07:34:10 437.405
HORYU 2 27 Sep 07:22:13 07:25:14 18° 293° (WNW) 07:28:15 437.375
DOVE 4 27 Sep 07:25:58 07:29:55 40° 98° (E) 07:33:47 437.250
STRAND 1 27 Sep 07:34:20 07:39:25 81° 75° (ENE) 07:44:32 437.568
NOAA 15 27 Sep 07:36:37 07:41:52 63° 286° (WNW) 07:47:04 137.62
CANX-2 27 Sep 07:41:18 07:42:36 11° 91° (E) 07:43:54 2200.000
Cubesat XI-IV 27 Sep 07:49:47 07:55:03 59° 287° (WNW) 08:00:18 437.490
CUTE-I 27 Sep 07:50:13 07:55:28 58° 287° (WNW) 08:00:43 437.470
O/OREOS (USA 219) 27 Sep 08:08:59 08:13:23 49° 293° (WNW) 08:17:50 437.305
AO-85 27 Sep 08:09:31 08:11:14 12° 252° (WSW) 08:12:55 145.980
RS-15 27 Sep 08:12:36 08:21:01 22° 261° (W) 08:29:19 29.354- 29.394
NOAA 18 27 Sep 08:24:48 08:29:46 37° 291° (WNW) 08:34:44 137.9125
GONETS M04 27 Sep 08:29:47 08:37:56 44° 88° (E) 08:46:08
PRISM 27 Sep 08:38:06 08:41:47 31° 71° (ENE) 08:45:30 437.425
GOMX 1 27 Sep 08:40:50 08:42:05 11° 296° (WNW) 08:43:19 467.674
UWE-3 27 Sep 08:41:45 08:43:02 11° 92° (E) 08:44:21 435.000/436.395/437.385
DANDE 27 Sep 08:42:59 08:50:11 33° 274° (W) 08:56:53 436.750
CINEMA 3 27 Sep 08:43:23 08:47:34 80° 103° (ESE) 08:51:51 145.822/145.860
HO-68 27 Sep 08:46:11 08:53:14 60° 102° (ESE) 09:00:16 435.675
Cosmos 2499 27 Sep 08:49:18 08:56:05 45° 90° (E) 09:02:43 435.465 / 435.565
COMPASS 1 27 Sep 08:49:32 08:53:13 29° 97° (E) 08:56:52 437.405
DOVE 4 27 Sep 09:05:09 09:07:14 14° 293° (WNW) 09:09:18 437.250
Oscar 11 27 Sep 09:11:20 09:13:51 15° 93° (E) 09:16:22 145.826/435.025
ZACube-1 27 Sep 09:11:35 09:14:18 16° 94° (E) 09:17:01 437.345
CUTE 1.7 + AOD 2 27 Sep 09:13:22 09:17:37 62° 284° (WNW) 09:21:51 437.475
CANX-2 27 Sep 09:14:32 09:18:42 51° 285° (WNW) 09:22:52 2200.000
SEEDS 27 Sep 09:16:10 09:20:27 85° 285° (WNW) 09:24:43 437.485
BEESAT 3 27 Sep 09:18:14 09:18:49 10° 46° (NE) 09:19:25 437.485
ANTELSAT 27 Sep 09:28:02 09:30:02 13° 66° (ENE) 09:32:03 437.575/2403.000
AAUSAT CUBESAT 2 27 Sep 09:40:57 09:45:10 84° 283° (WNW) 09:49:20 437.432
TIGRISAT 27 Sep 09:47:27 09:50:38 21° 69° (ENE) 09:53:48 435.000
CUBEBUG 2 27 Sep 09:55:53 10:00:05 58° 285° (WNW) 10:04:25 437.445
FUNcube-1 27 Sep 10:04:44 10:09:03 64° 101° (E) 10:13:26 145.935
BEESAT 2 27 Sep 10:10:23 10:13:11 18° 50° (NE) 10:16:00 435.950
PRISM 27 Sep 10:14:19 10:17:07 17° 265° (W) 10:19:56 437.425
UWE-3 27 Sep 10:15:31 10:19:44 53° 285° (WNW) 10:24:02 435.000/436.395/437.385
COMPASS 1 27 Sep 10:25:29 10:28:33 20° 291° (WNW) 10:31:35 437.405
UNISAT 6 27 Sep 10:26:37 10:30:52 66° 75° (ENE) 10:35:05 437.425
GONETS M04 27 Sep 10:26:49 10:34:45 37° 286° (WNW) 10:42:46
HO-68 27 Sep 10:34:59 10:40:24 24° 298° (WNW) 10:45:50 435.675
Cosmos 2499 27 Sep 10:43:30 10:49:20 26° 287° (WNW) 10:55:06 435.465 / 435.565
Oscar 11 27 Sep 10:46:03 10:50:07 39° 287° (WNW) 10:54:10 145.826/435.025
NANOSAT C BR1 27 Sep 10:46:06 10:47:27 11° 65° (ENE) 10:48:48 145.865
ZACube-1 27 Sep 10:46:39 10:50:39 37° 287° (WNW) 10:54:44 437.345
PHONESAT 2.4 27 Sep 10:50:44 10:53:30 40° 151° (SSE) 10:56:18 2401.200-2431.200
BEESAT 3 27 Sep 10:52:58 10:56:57 73° 241° (WSW) 11:00:53 437.485
ANTELSAT 27 Sep 11:02:14 11:06:20 45° 261° (W) 11:10:26 437.575/2403.000
QB50P2 27 Sep 11:06:42 11:10:02 23° 70° (ENE) 11:13:22 145.880/145.840
DELFI C3 27 Sep 11:06:57 11:10:53 54° 285° (WNW) 11:14:46 145.870
POLYITAN 1 27 Sep 11:08:56 11:12:15 23° 70° (ENE) 11:15:34 437.675
HUMSAT D 27 Sep 11:12:34 11:16:51 77° 102° (ESE) 11:21:08 437.325/437.525
TIGRISAT 27 Sep 11:23:30 11:27:09 27° 263° (W) 11:30:47 435.000
JAS-2 27 Sep 11:39:40 11:45:40 45° 69° (ENE) 11:52:25 435.910
ESTCUBE 1 27 Sep 11:43:11 11:46:47 23° 95° (E) 11:50:21 437.505/2401.250
FUNcube-1 27 Sep 11:44:11 11:44:45 10° 295° (WNW) 11:45:18 145.935
DUCHIFAT 1 27 Sep 11:46:55 11:51:00 56° 75° (ENE) 11:55:06 145.980
BEESAT 2 27 Sep 11:47:25 11:51:06 35° 246° (WSW) 11:54:45 435.950
VELOX 1 27 Sep 11:47:29 11:48:23 11° 92° (E) 11:49:18 145.980
QB50P1 27 Sep 11:48:16 11:52:27 69° 77° (ENE) 11:56:38 145.935-145.965
CUBEBUG 1 27 Sep 11:51:35 11:54:22 17° 94° (E) 11:57:09 437.445
BUGSAT 1 27 Sep 11:52:38 11:56:00 25° 71° (ENE) 11:59:21 437.445
POPSAT HIP 1 27 Sep 12:01:43 12:05:55 82° 258° (WSW) 12:10:08 437.405
NANOSAT C BR1 27 Sep 12:18:36 12:22:42 52° 260° (W) 12:26:48 145.865
PHONESAT 2.4 27 Sep 12:26:49 12:29:38 41° 348° (NNW) 12:32:27 2401.200-2431.200
AIST 2 27 Sep 12:27:20 12:30:23 19° 50° (NE) 12:33:25 435.215
SPROUT 27 Sep 12:34:45 12:38:01 21° 95° (E) 12:41:16 437.525
M-CUBED/EXP-1 PRIME 27 Sep 12:37:07 12:39:22 17° 101° (E) 12:41:39 437.505
AISAT 27 Sep 12:37:13 12:41:27 46° 100° (E) 12:45:38 437.250
QB50P2 27 Sep 12:42:16 12:45:42 24° 264° (W) 12:49:09 145.880/145.840
POLYITAN 1 27 Sep 12:44:31 12:47:56 24° 264° (W) 12:51:21 437.675
50 SAT 27 Sep 12:46:43 12:50:21 57° 101° (E) 12:53:56 437.505
UKube-1 27 Sep 12:47:30 12:51:05 25° 97° (E) 12:54:40 .
Oscar 19 27 Sep 13:02:01 13:06:35 32° 70° (ENE) 13:11:09 437.125/150
PCSat 27 Sep 13:03:35 13:07:01 17° 49° (NE) 13:10:25 145.827
DX 1 27 Sep 13:14:29 13:18:50 73° 102° (ESE) 13:23:08 434.975-435.025
ESTCUBE 1 27 Sep 13:19:39 13:23:31 28° 290° (WNW) 13:27:23 437.505/2401.250
VELOX 1 27 Sep 13:20:51 13:25:09 56° 286° (WNW) 13:29:26 145.980
JAS-2 27 Sep 13:25:39 13:30:54 27° 268° (W) 13:36:44 435.910
CUBEBUG 1 27 Sep 13:26:48 13:30:44 35° 288° (WNW) 13:34:38 437.445
BUGSAT 1 27 Sep 13:28:07 13:31:17 21° 264° (W) 13:34:27 437.445
AUBIESAT-1 27 Sep 13:33:42 13:36:59 83° 291° (WNW) 13:40:20 437.475
Gurwin Techsat 1B 27 Sep 13:55:06 14:00:12 49° 72° (ENE) 14:05:18 435.225
TISAT 1 27 Sep 13:56:33 14:00:21 34° 98° (E) 14:04:08 437.305
ITAMSAT 1 27 Sep 13:56:37 13:58:56 13° 62° (ENE) 14:01:16 435.822/435.867
PHONESAT 2.4 27 Sep 14:03:25 14:06:06 30° 4° (N) 14:08:47 2401.200-2431.200
AIST 2 27 Sep 14:05:05 14:08:57 36° 246° (WSW) 14:12:48 435.215
AO-7 27 Sep 14:06:44 14:12:02 19° 54° (NE) 14:17:20 29.400- 29.500
SPROUT 27 Sep 14:10:19 14:13:53 27° 289° (WNW) 14:17:27 437.525
M-CUBED/EXP-1 PRIME 27 Sep 14:11:31 14:13:50 18° 294° (WNW) 14:16:08 437.505
Cosmos 2491 27 Sep 14:13:58 14:21:02 28° 84° (E) 14:28:07 435.465 / 435.565
AISAT 27 Sep 14:15:12 14:17:29 14° 294° (WNW) 14:19:45 437.250
SWISSCUBE 27 Sep 14:15:27 14:16:48 11° 92° (E) 14:18:07 437.505
YUBILEINY 27 Sep 14:21:03 14:29:35 56° 79° (E) 14:38:02 435.215
UKube-1 27 Sep 14:23:34 14:26:59 23° 291° (WNW) 14:30:23 .
BEESAT 27 Sep 14:27:28 14:29:56 14° 93° (E) 14:32:22 436.000
Oscar 19 27 Sep 14:41:32 14:45:51 26° 264° (W) 14:50:12 437.125/150
PCSat 27 Sep 14:45:31 14:50:54 68° 246° (WSW) 14:56:16 145.827
SO-50 27 Sep 14:57:27 15:01:49 35° 113° (ESE) 15:06:10 436.795
Cosmos 2504 27 Sep 15:30:39 15:38:03 60° 81° (E) 15:45:55 435.465 / 435.565
ITAMSAT 1 27 Sep 15:32:38 15:37:46 69° 258° (WSW) 15:42:56 435.822/435.867
TISAT 1 27 Sep 15:33:03 15:35:41 17° 292° (WNW) 15:38:20 437.305
ITUPSAT 1 27 Sep 15:36:46 15:41:37 80° 102° (ESE) 15:46:25 437.325
Gurwin Techsat 1B 27 Sep 15:36:53 15:40:22 18° 267° (W) 15:43:50 435.225
PHONESAT 2.4 27 Sep 15:39:31 15:42:28 74° 20° (NNE) 15:45:26 2401.200-2431.200
SWISSCUBE 27 Sep 15:50:11 15:54:57 64° 285° (WNW) 15:59:41 437.505
AO-7 27 Sep 15:55:22 16:03:43 89° 253° (WSW) 16:12:05 29.400- 29.500
MOZHAYETS 4 27 Sep 15:56:42 16:00:14 21° 95° (E) 16:03:44
BEESAT 27 Sep 16:03:18 16:07:57 51° 287° (WNW) 16:12:35 436.000
Cosmos 2491 27 Sep 16:08:44 16:17:16 55° 281° (W) 16:25:55 435.465 / 435.565
YUBILEINY 27 Sep 16:18:51 16:25:45 27° 277° (W) 16:32:40 435.215
KKS-1 27 Sep 16:24:50 16:28:30 25° 96° (E) 16:32:09 437.445
AIST 1 27 Sep 16:30:17 16:34:16 37° 79° (E) 16:38:12
BRITE-PL 27 Sep 16:36:56 16:40:21 17° 65° (ENE) 16:43:44 437.365/2234.400
SO-50 27 Sep 16:38:18 16:42:19 26° 309° (NW) 16:46:20 436.795
HORYU 2 27 Sep 16:40:27 16:43:58 24° 69° (ENE) 16:47:29 437.375
O/OREOS (USA 219) 27 Sep 16:43:41 16:46:43 17° 59° (ENE) 16:49:43 437.305
STARS 27 Sep 16:59:24 17:03:12 28° 97° (E) 17:06:58 437.465
CUBESAT XI-V 27 Sep 17:15:37 17:18:55 19° 94° (E) 17:22:11 437.345
NOAA 15 27 Sep 17:16:11 17:19:36 18° 64° (ENE) 17:23:03 137.62
PHONESAT 2.4 27 Sep 17:16:15 17:18:21 18° 214° (SW) 17:20:26 2401.200-2431.200
Cosmos 2504 27 Sep 17:25:23 17:30:50 22° 276° (W) 17:36:32 435.465 / 435.565
Cubesat XI-IV 27 Sep 17:30:48 17:34:29 19° 65° (ENE) 17:38:09 437.490
CUTE-I 27 Sep 17:31:01 17:34:44 20° 65° (ENE) 17:38:27 437.470
MOZHAYETS 4 27 Sep 17:33:16 17:37:23 32° 289° (WNW) 17:41:29
LilacSat-2 27 Sep 17:42:15 17:44:40 17° 69° (ENE) 17:47:07 437.200
AO-7 27 Sep 17:53:04 17:57:21 15° 268° (W) 18:01:40 29.400- 29.500
KKS-1 27 Sep 18:01:21 18:04:57 25° 291° (WNW) 18:08:30 437.445
GOMX 1 27 Sep 18:04:10 18:09:21 47° 73° (ENE) 18:14:21 467.674
NOAA 18 27 Sep 18:07:55 18:12:53 37° 69° (ENE) 18:17:51 137.9125
AIST 1 27 Sep 18:09:15 18:11:28 14° 274° (W) 18:13:40
RS-15 27 Sep 18:11:35 18:17:06 15° 96° (E) 18:22:42 29.354- 29.394
BRITE-PL 27 Sep 18:12:34 18:18:13 65° 259° (W) 18:23:50 437.365/2234.400
HORYU 2 27 Sep 18:16:42 18:20:23 26° 263° (W) 18:24:05 437.375
O/OREOS (USA 219) 27 Sep 18:21:58 18:26:18 42° 255° (WSW) 18:30:35 437.305
DOVE 4 27 Sep 18:27:53 18:32:25 34° 72° (ENE) 18:36:44 437.250
STARS 27 Sep 18:36:04 18:39:22 21° 291° (WNW) 18:42:40 437.465
CUSAT 1 27 Sep 18:36:33 18:41:28 26° 84° (E) 18:47:15 437.405
GONETS M04 27 Sep 18:45:02 18:50:34 18° 66° (ENE) 18:56:02
Cosmos 2499 27 Sep 18:45:12 18:48:10 12° 66° (ENE) 18:51:11 435.465 / 435.565
CUBESAT XI-V 27 Sep 18:52:04 18:56:22 36° 288° (WNW) 19:00:37 437.345
NOAA 15 27 Sep 18:53:45 18:58:54 53° 259° (W) 19:04:07 137.62
Cubesat XI-IV 27 Sep 19:09:03 19:14:08 47° 260° (W) 19:19:16 437.490
CUTE-I 27 Sep 19:09:19 19:14:23 46° 260° (W) 19:19:30 437.470
HO-68 27 Sep 19:12:02 19:18:15 33° 65° (ENE) 19:24:29 435.675
LilacSat-2 27 Sep 19:15:34 19:18:45 26° 263° (W) 19:21:57 437.200
ISS 27 Sep 19:29:21 19:31:38 18° 129° (SE) 19:33:56 145.825
COMPASS 1 27 Sep 19:38:43 19:40:55 14° 67° (ENE) 19:43:06 437.405
CINEMA 3 27 Sep 19:41:54 19:46:17 50° 75° (ENE) 19:50:30 145.822/145.860
GOMX 1 27 Sep 19:43:45 19:47:31 19° 266° (W) 19:51:14 467.674
STRAND 1 27 Sep 19:48:02 19:52:44 34° 98° (E) 19:57:24 437.568
NOAA 18 27 Sep 19:49:08 19:53:34 25° 264° (W) 19:58:01 137.9125
CUTE 1.7 + AOD 2 27 Sep 20:02:41 20:06:51 61° 75° (ENE) 20:11:03 437.475
CANX-2 27 Sep 20:03:50 20:08:03 74° 76° (ENE) 20:12:18 2200.000
DANDE 27 Sep 20:04:22 20:09:01 51° 91° (E) 20:15:11 436.750
SEEDS 27 Sep 20:04:46 20:08:44 42° 74° (ENE) 20:12:44 437.485
DOVE 4 27 Sep 20:06:05 20:10:04 23° 264° (W) 20:13:55 437.250
RS-15 27 Sep 20:15:53 20:27:19 77° 115° (ESE) 20:39:25 29.354- 29.394
CUSAT 1 27 Sep 20:17:09 20:22:55 46° 286° (WNW) 20:30:01 437.405
AAUSAT CUBESAT 2 27 Sep 20:28:02 20:31:56 41° 73° (ENE) 20:35:53 437.432
Cosmos 2499 27 Sep 20:34:35 20:42:15 81° 83° (E) 20:50:30 435.465 / 435.565
AO-85 27 Sep 20:37:54 20:42:38 34° 113° (ESE) 20:47:08 145.980
GONETS M04 27 Sep 20:39:36 20:48:27 84° 265° (W) 20:57:11
CUBEBUG 2 27 Sep 20:50:54 20:55:08 79° 76° (ENE) 20:59:17 437.445
FUNcube-1 27 Sep 20:57:44 21:01:24 32° 72° (ENE) 21:05:04 145.935
HO-68 27 Sep 20:59:01 21:05:44 43° 260° (W) 21:12:29 435.675
ISS 27 Sep 21:04:54 21:07:55 35° 324° (NW) 21:10:57 145.825
UWE-3 27 Sep 21:09:24 21:13:34 84° 79° (E) 21:17:44 435.000/436.395/437.385
COMPASS 1 27 Sep 21:12:08 21:16:04 41° 262° (W) 21:20:02 437.405
CINEMA 3 27 Sep 21:21:51 21:23:36 12° 267° (W) 21:25:20 145.822/145.860
JUGNU 27 Sep 21:23:17 21:26:40 16° 174° (S) 21:30:02 437.505
STRAND 1 27 Sep 21:27:35 21:31:42 25° 292° (WNW) 21:35:47 437.568
Oscar 11 27 Sep 21:37:14 21:41:31 77° 258° (WSW) 21:45:51 145.826/435.025
ZACube-1 27 Sep 21:39:10 21:43:17 70° 259° (W) 21:47:26 437.345
SEEDS 27 Sep 21:42:41 21:44:36 13° 268° (W) 21:46:33 437.485
DANDE 27 Sep 21:48:53 21:52:30 18° 297° (WNW) 21:56:45 436.750
DELFI C3 27 Sep 21:49:23 21:53:15 53° 75° (ENE) 21:57:11 145.870
PRISM 27 Sep 21:57:03 22:01:12 78° 103° (ESE) 22:05:17 437.425
HUMSAT D 27 Sep 22:01:06 22:04:45 33° 72° (ENE) 22:08:27 437.325/437.525
AAUSAT CUBESAT 2 27 Sep 22:05:37 22:07:35 13° 268° (W) 22:09:33 437.432
AO-85 27 Sep 22:18:35 22:23:05 29° 307° (NW) 22:27:22 145.980
SRMSAT 27 Sep 22:21:35 22:22:52 11° 166° (SSE) 22:24:10 437.500
UNISAT 6 27 Sep 22:21:54 22:24:52 17° 94° (E) 22:27:51 437.425
Cosmos 2499 27 Sep 22:30:14 22:34:30 16° 278° (W) 22:38:55 435.465 / 435.565
RS-15 27 Sep 22:30:49 22:41:03 33° 319° (NW) 22:51:45 29.354- 29.394
FUNcube-1 27 Sep 22:35:04 22:37:42 16° 266° (W) 22:40:19 145.935
GONETS M04 27 Sep 22:40:02 22:43:48 13° 283° (WNW) 22:47:33
ESTCUBE 1 27 Sep 22:40:45 22:43:27 16° 66° (ENE) 22:46:10 437.505/2401.250
CUBEBUG 1 27 Sep 22:46:43 22:47:42 11° 64° (ENE) 22:48:41 437.445
ANTELSAT 27 Sep 22:56:15 23:00:28 43° 99° (E) 23:04:46 437.575/2403.000
JUGNU 27 Sep 23:11:26 23:14:55 16° 184° (S) 23:18:23 437.505
TIGRISAT 27 Sep 23:16:39 23:21:03 71° 101° (E) 23:25:33 435.000
M-CUBED/EXP-1 PRIME 27 Sep 23:20:32 23:23:30 19° 66° (ENE) 23:26:20 437.505
50 SAT 27 Sep 23:21:37 23:23:53 16° 69° (ENE) 23:26:10 437.505
SPROUT 27 Sep 23:27:09 23:28:45 12° 66° (ENE) 23:30:23 437.525
AISAT 27 Sep 23:31:48 23:35:37 29° 70° (ENE) 23:39:28 437.250
SO-50 27 Sep 23:32:32 23:35:17 16° 46° (NE) 23:37:59 436.795
DUCHIFAT 1 27 Sep 23:36:18 23:37:26 11° 92° (E) 23:38:35 145.980
QB50P1 27 Sep 23:37:26 23:39:35 14° 93° (E) 23:41:46 145.935-145.965
HUMSAT D 27 Sep 23:38:03 23:40:27 15° 267° (W) 23:42:53 437.325/437.525
UKube-1 27 Sep 23:40:05 23:42:43 16° 66° (ENE) 23:45:20 .
POPSAT HIP 1 27 Sep 23:50:09 23:53:13 19° 95° (E) 23:56:17 437.405
UNISAT 6 27 Sep 23:57:35 00:01:38 36° 288° (WNW) 00:05:45 437.425
NANOSAT C BR1 28 Sep 00:06:01 00:09:40 28° 97° (E) 00:13:19 145.865
DX 1 28 Sep 00:06:57 00:11:05 42° 72° (ENE) 00:15:13 434.975-435.025
SRMSAT 28 Sep 00:07:45 00:11:15 16° 176° (S) 00:14:46 437.500
VELOX 1 28 Sep 00:14:40 00:19:07 87° 81° (E) 00:23:36 145.980
ESTCUBE 1 28 Sep 00:15:34 00:19:51 43° 261° (W) 00:24:12 437.505/2401.250
AUBIESAT-1 28 Sep 00:16:16 00:20:24 73° 73° (ENE) 00:24:15 437.475
CUBEBUG 1 28 Sep 00:19:02 00:23:24 63° 259° (WSW) 00:27:48 437.445
QB50P2 28 Sep 00:29:01 00:33:12 65° 100° (E) 00:37:24 145.880/145.840
POLYITAN 1 28 Sep 00:31:13 00:35:25 65° 101° (E) 00:39:37 437.675
Cosmos 2491 28 Sep 00:31:22 00:32:39 10° 60° (ENE) 00:33:56 435.465 / 435.565
ANTELSAT 28 Sep 00:34:13 00:36:49 15° 293° (WNW) 00:39:27 437.575/2403.000
JAS-2 28 Sep 00:36:34 00:44:17 57° 99° (E) 00:51:32 435.910
BEESAT 3 28 Sep 00:40:39 00:44:12 35° 114° (ESE) 00:47:48 437.485
TISAT 1 28 Sep 00:46:05 00:48:57 18° 68° (ENE) 00:51:50 437.305
RS-15 28 Sep 00:53:02 00:59:17 15° 353° (N) 01:05:36 29.354- 29.394
50 SAT 28 Sep 00:54:06 00:57:09 26° 263° (W) 01:00:14 437.505
M-CUBED/EXP-1 PRIME 28 Sep 00:54:07 00:57:51 29° 257° (WSW) 01:01:21 437.505
SPROUT 28 Sep 01:00:04 01:04:13 51° 260° (W) 01:08:23 437.525
JUGNU 28 Sep 01:02:13 01:03:07 10° 194° (SSW) 01:04:00 437.505
AISAT 28 Sep 01:08:37 01:12:03 22° 264° (W) 01:15:30 437.250
DUCHIFAT 1 28 Sep 01:09:19 01:13:22 49° 286° (WNW) 01:17:24 145.980
BUGSAT 1 28 Sep 01:11:32 01:15:32 63° 101° (E) 01:19:32 437.445
QB50P1 28 Sep 01:11:34 01:15:31 40° 287° (WNW) 01:19:27 145.935-145.965
SO-50 28 Sep 01:11:40 01:16:08 57° 244° (WSW) 01:20:27 436.795
UKube-1 28 Sep 01:14:21 01:18:24 39° 261° (W) 01:22:28 .
Oscar 19 28 Sep 01:17:59 01:20:29 14° 92° (E) 01:22:59 437.125/150
POPSAT HIP 1 28 Sep 01:25:21 01:28:59 28° 289° (WNW) 01:32:36 437.405
BEESAT 28 Sep 01:32:03 01:33:58 12° 64° (ENE) 01:35:53 436.000
BEESAT 2 28 Sep 01:35:50 01:39:45 79° 118° (ESE) 01:43:43 435.950
NANOSAT C BR1 28 Sep 01:42:09 01:45:11 20° 291° (WNW) 01:48:14 145.865
DX 1 28 Sep 01:45:04 01:47:25 14° 267° (W) 01:49:46 434.975-435.025
SRMSAT 28 Sep 01:56:20 01:59:39 15° 186° (S) 02:02:58 437.500
ISS 28 Sep 01:59:55 02:01:03 11° 23° (NNE) 02:02:12 145.825
Gurwin Techsat 1B 28 Sep 02:14:47 02:19:05 25° 95° (E) 02:23:22 435.225
BEESAT 3 28 Sep 02:19:22 02:21:58 17° 310° (NW) 02:24:36 437.485
TISAT 1 28 Sep 02:20:37 02:24:20 31° 262° (W) 02:28:05 437.305
JAS-2 28 Sep 02:22:17 02:28:43 29° 296° (WNW) 02:34:55 435.910
Cosmos 2491 28 Sep 02:22:29 02:31:17 66° 81° (E) 02:40:01 435.465 / 435.565
ITUPSAT 1 28 Sep 02:40:26 02:45:08 66° 75° (ENE) 02:49:53 437.325
SWISSCUBE 28 Sep 02:53:26 02:58:11 78° 258° (WSW) 03:02:58 437.505
Oscar 19 28 Sep 02:55:04 03:00:09 59° 287° (WNW) 03:05:10 437.125/150
MOZHAYETS 4 28 Sep 02:56:45 02:59:19 15° 66° (ENE) 03:01:53
BEESAT 28 Sep 03:06:28 03:11:10 63° 258° (WSW) 03:15:53 436.000
RS-15 28 Sep 03:09:28 03:18:44 23° 31° (NNE) 03:27:54 29.354- 29.394
YUBILEINY 28 Sep 03:17:41 03:26:24 71° 93° (E) 03:35:06 435.215
KKS-1 28 Sep 03:20:47 03:23:42 17° 67° (ENE) 03:26:37 437.445
ISS 28 Sep 03:34:46 03:38:04 69° 41° (NE) 03:41:19 145.825
PCSat 28 Sep 03:42:06 03:46:19 24° 106° (ESE) 03:50:33 145.827
